Weather Roundup
Issued by NWS Springfield, MO

Home | Current Version | Previous Version | Text Only | Print | Product List | Glossary On
Versions: 1 2 3 4 5 6 7 8 9 10 11 12 13 14 15 16 17 18 19 20 21 22 23 24 25 26 27 28 29 30 31 32 33 34 35 36 37 38 39 40 41 42 43 44 45 46 47 48 49 50
529
NZUS99 KSGF 271257
HRRSGF

HOURLY WEATHER
NATIONAL WEATHER SERVICE SPRINGFIELD MO
800 AM CDT THU JUL 27 2017

......SGF CWA......

CITY           SKY/WX    TMP DP  RH WIND       PRES   REMARKS
SPRINGFIELD    RAIN      76  74  93 W6        30.04R FOG
JOPLIN         LGT RAIN  77  76  96 SW12      29.99F
WEST PLAINS    LGT RAIN  75  72  90 W3        30.04R
ROLLA          LGT RAIN  72  72 100 SW7       30.01S
BRANSON        CLOUDY    77  70  78 CALM      30.04R

......SURROUNDING SGF CWA......

CITY           SKY/WX    TMP DP  RH WIND       PRES   REMARKS
CHANUTE        CLOUDY    77  74  90 S5        29.96R
PARSONS        CLOUDY    77  73  87 CALM      29.97R
COFFEYVILLE    CLOUDY    76  73  91 S6        29.95F
EMPORIA        CLOUDY    75  73  93 NE9       29.98R
HARRISON AR    CLOUDY    80  70  71 NW3       30.04R

......KANSAS AND MISSOURI......

CITY           SKY/WX    TMP DP  RH WIND       PRES   REMARKS
KANSAS CTY INT DRIZZLE   75  74  96 NE7       29.97S FOG
COLUMBIA       LGT RAIN  73  73 100 CALM      29.97R
SEDALIA        CLOUDY    75  75 100 SW6       29.97R
ST JOSEPH      PTSUNNY   75  73  93 N10       29.99R
ST LOUIS       LGT RAIN  78  74  87 VRB6      29.98R
WICHITA        PTSUNNY   76  74  93 N8        29.96R
TOPEKA         CLOUDY    76  76 100 N6        29.97S
OLATHE         CLOUDY    73  73 100 CALM      29.97S FOG

......TENNESSEE......

CITY           SKY/WX    TMP DP  RH WIND       PRES   REMARKS
MEMPHIS        NOT AVBL
NASHVILLE      PTSUNNY   81  74  79 CALM      30.04R

......ARKANSAS.......

CITY           SKY/WX    TMP DP  RH WIND       PRES   REMARKS
FAYETTEVILLE   CLOUDY    79  72  79 SW5       30.03R
FT SMITH       CLOUDY    79  75  87 E3        29.99R
LITTLE ROCK    PTSUNNY   80  76  87 SW8       30.01R

......OKLAHOMA.......

CITY           SKY/WX    TMP DP  RH WIND       PRES   REMARKS
TULSA          LGT RAIN  80  75  84 S3        29.97R
PONCA CITY     LGT RAIN  78  70  76 S6        29.94R
MCALESTER      SUNNY     82  72  71 SW9       30.01R
OKLAHOMA CITY  CLOUDY    79  68  69 S9        29.98S

......IOWA............

CITY           SKY/WX    TMP DP  RH WIND       PRES   REMARKS
DES MOINES     NOT AVBL
QUAD CITIES    CLOUDY    73  69  87 NE5       29.96R

......ILLINOIS........

CITY           SKY/WX    TMP DP  RH WIND       PRES   REMARKS
QUINCY         CLOUDY    75  73  93 NE6       29.94S
CHICAGO        PTSUNNY   77  69  76 N8        29.93S




USA.gov is the U.S. government's official web portal to all federal, state and local government web resources and services.